Lapse_Rate
5.1 5.2 5.0 5.0 4.6 4.5 4.0 3.5 3.3 2.9 2.8 2.8 2.7 2.4 2.4 3.3 2.8 4.2 3.9 6.2 5.6 6.5 6.3 4.2 4.1 3.9 4.8 5.0 5.7 4.3 6.5 6.5 6.5 6.5 6.5 6.3 6.5 6.1 5.5 5.9 5.4 5.5 4.6 3.6 0.7
5.0 4.8 4.9 4.9 4.6 4.3 3.9 3.7 3.0 2.9 2.8 3.0 3.0 2.8 2.5 3.2 1.1 4.3 6.8 6.6 6.8 7.1 5.2 5.1 5.0 4.1 3.4 4.3 4.3 5.7 6.5 6.5 6.5 6.5 6.5 6.3 6.2 5.9 6.0 5.3 6.3 5.6 2.5 1.7 1.8
4.8 4.8 4.7 4.6 4.7 4.4 4.0 3.7 3.1 2.9 3.1 3.3 3.2 3.1 2.8 2.4 4.4 5.8 7.0 6.3 6.2 6.8 6.2 6.1 5.8 5.7 5.7 5.5 5.5 6.0 6.5 6.5 6.3 6.0 6.1 6.2 6.2 5.8 6.2 6.5 5.5 5.9 5.0 2.6 2.9
4.7 4.8 4.6 4.7 4.7 4.6 4.1 3.7 3.5 3.3 3.0 3.0 3.1 2.8 2.6 2.3 6.5 6.1 6.8 6.3 6.4 7.0 6.1 5.7 5.5 5.7 6.2 6.5 5.2 6.5 6.2 6.4 6.2 4.8 5.8 6.5 5.7 6.1 5.5 5.5 4.2 4.3 4.8 3.4 3.6
4.8 4.7 4.7 4.6 4.6 4.3 3.9 3.4 3.2 3.2 2.9 2.7 3.1 2.7 2.2 4.9 6.2 6.8 6.1 5.7 6.2 6.2 6.1 6.2 6.1 5.8 6.5 6.3 5.5 6.5 6.5 6.3 5.9 5.9 5.6 6.3 6.3 6.2 6.1 5.6 4.8 3.6 4.3 4.2 4.1
4.7 4.5 4.4 4.3 4.3 4.4 3.7 3.1 2.8 2.7 2.8 2.8 2.8 2.7 3.8 5.8 6.9 5.1 4.2 4.4 4.8 5.7 6.1 7.1 6.8 6.7 6.1 6.4 6.5 5.9 6.4 6.4 6.4 6.1 6.2 6.5 6.5 6.2 6.4 6.6 4.7 3.8 3.1 2.8 2.4
4.9 4.5 4.3 4.2 4.3 4.2 3.5 2.6 2.3 2.5 3.0 3.0 2.7 2.1 3.7 6.1 4.3 4.6 4.4 4.9 3.9 5.3 5.6 6.5 7.2 6.8 6.2 6.5 6.3 6.3 6.5 6.5 6.4 6.0 6.4 6.3 6.5 6.5 5.7 6.7 5.6 3.5 3.3 3.0 2.5
4.9 4.6 4.3 4.1 4.3 4.1 3.4 2.3 2.3 2.6 2.9 2.9 2.6 2.1 4.1 4.9 4.9 4.7 4.8 5.2 4.8 5.2 5.5 5.6 6.4 6.5 6.3 6.2 6.0 6.5 6.5 6.5 6.5 6.4 6.2 5.9 6.5 6.5 6.7 6.5 5.2 3.8 2.9 3.1 2.9
5.0 4.8 4.5 4.2 4.1 3.7 2.8 2.3 3.5 3.1 3.3 3.3 2.5 2.9 5.5 5.0 5.7 5.5 5.2 5.7 5.6 5.6 6.1 7.5 6.9 6.0 6.4 6.5 6.5 6.5 6.5 6.5 6.5 6.3 6.5 6.5 6.5 6.5 6.2 5.9 5.7 4.9 2.4 2.1 2.2
5.1 4.8 4.5 4.5 4.1 3.5 2.4 2.8 3.7 3.7 3.4 3.6 3.2 4.3 4.7 5.8 5.9 6.0 6.1 5.0 5.6 5.4 5.6 5.9 4.0 6.5 6.5 6.5 6.5 6.5 6.5 6.5 6.5 6.5 6.5 6.5 6.5 6.5 6.1 6.1 6.0 5.5 2.8 1.4 1.6
5.2 4.8 4.6 4.8 4.3 3.5 2.5 2.6 2.9 4.1 2.6 4.8 4.6 4.9 4.7 4.1 5.9 6.8 6.2 5.1 5.9 5.7 6.5 6.0 6.5 6.5 6.5 6.5 6.5 6.5 6.5 6.5 6.5 6.5 6.5 6.5 6.5 6.5 6.2 5.1 6.1 6.2 4.8 2.3 1.9
5.1 4.6 4.4 4.7 4.5 4.2 1.9 3.1 5.6 4.4 4.7 3.2 3.0 2.7 3.3 4.7 5.8 6.1 5.5 5.4 6.1 6.5 6.5 6.5 6.5 6.5 6.5 6.5 6.5 6.5 6.5 6.5 6.5 6.5 6.5 6.5 6.5 6.5 6.5 6.2 5.5 6.2 6.3 4.4 1.8
5.0 4.5 4.3 4.6 4.5 3.9 4.1 5.1 4.2 4.0 2.9 4.6 4.4 4.4 5.5 5.5 6.2 5.9 5.3 5.1 6.5 6.5 6.5 6.5 6.5 6.5 6.5 6.5 6.5 6.5 6.5 6.5 6.5 6.5 6.5 6.5 6.5 6.5 6.5 5.8 5.2 5.0 5.4 6.0 3.0
5.1 4.4 4.2 4.2 5.0 3.0 4.8 4.4 4.3 3.3 6.5 6.5 6.4 6.8 6.2 6.3 6.2 6.8 6.0 6.0 6.2 6.5 6.5 6.5 6.4 6.5 6.5 6.5 6.5 6.5 6.5 6.5 6.5 6.5 6.5 6.5 6.5 6.5 6.5 6.5 6.5 6.5 5.0 4.7 4.7
5.1 4.5 4.3 3.7 3.5 4.3 5.2 4.2 3.9 2.8 6.5 6.5 6.2 7.2 5.7 5.9 6.7 6.5 5.9 5.6 6.5 6.5 6.5 6.5 6.5 6.5 6.5 6.5 6.5 6.5 6.5 6.5 6.5 6.5 6.5 6.5 6.5 6.5 6.5 6.5 6.5 6.5 6.6 6.2 4.5
5.0 4.5 4.2 3.5 2.2 4.5 4.1 4.4 3.1 6.5 6.5 6.5 6.4 6.5 6.4 5.8 6.0 5.5 5.1 5.1 6.1 6.5 6.5 6.5 6.0 6.5 6.5 6.5 6.5 6.5 6.5 6.5 6.5 6.5 6.5 6.5 6.5 6.5 6.5 6.5 6.5 6.5 6.6 7.1 6.9
5.0 4.5 3.6 3.1 4.5 4.0 3.9 3.8 6.5 6.5 6.5 6.5 6.5 6.5 6.5 6.5 6.5 6.4 6.5 6.5 6.5 6.5 6.5 6.5 6.5 6.5 6.7 6.5 6.5 6.5 6.5 6.5 6.5 6.5 6.5 6.5 6.5 6.5 6.5 6.5 6.5 6.5 6.6 6.6 7.0
4.9 4.2 2.7 2.8 3.7 4.2 3.3 6.1 6.5 6.5 6.5 6.5 6.5 6.5 6.5 6.5 6.5 6.5 6.5 6.5 6.5 6.5 6.5 6.5 6.5 6.5 6.5 6.5 6.5 6.5 6.5 6.5 6.5 6.5 6.5 6.5 6.5 6.5 6.5 6.7 6.9 6.9 6.8 6.7 6.6
4.4 0.8 1.1 1.7 2.8 2.8 3.1 6.5 6.5 6.5 6.5 6.5 6.5 6.5 6.5 6.5 6.5 6.5 6.5 6.5 6.5 6.5 6.5 6.5 6.5 6.5 6.5 6.5 6.5 6.5 6.5 6.5 6.5 6.5 6.5 6.5 6.5 6.5 6.5 6.5 6.7 6.6 6.9 6.7 6.8
1.9 1.9 2.6 3.1 3.7 2.5 5.4 6.5 6.5 6.4 6.4 6.5 6.5 6.5 6.5 6.5 6.5 6.5 6.5 6.5 6.5 6.4 6.4 6.5 6.5 6.5 6.5 6.5 6.4 6.5 6.5 6.5 6.5 6.5 6.5 6.5 6.5 6.5 6.5 6.5 6.5 6.5 6.6 6.8 7.0
2.4 3.5 3.3 3.5 3.1 2.9 6.5 6.5 6.5 5.7 6.4 6.5 6.5 6.5 6.5 6.5 6.5 6.5 6.5 6.5 6.5 6.5 6.3 6.5 6.5 6.5 6.5 6.5 6.5 6.5 6.5 6.5 6.5 6.5 6.5 6.5 6.5 6.5 6.5 6.5 6.5 6.6 7.0 7.0 6.9
2.5 5.6 3.3 2.7 4.3 5.6 6.5 6.5 6.4 6.5 6.3 6.5 6.4 6.5 6.5 6.5 6.5 6.5 6.5 6.5 6.1 6.2 6.5 6.5 6.5 6.5 6.5 6.5 6.5 6.5 6.5 6.5 6.5 6.5 6.5 6.5 6.5 6.5 6.5 6.5 6.8 6.8 7.2 7.4 7.5
3.1 3.0 3.6 3.8 6.5 6.5 6.4 6.5 6.5 6.5 6.5 6.5 6.5 6.5 6.5 6.5 6.5 6.5 6.5 6.4 5.7 6.4 6.5 6.5 6.5 6.5 6.5 6.5 6.5 6.5 6.5 6.5 6.5 6.5 6.5 6.5 6.5 6.5 6.6 6.6 6.9 6.8 7.1 7.1 7.4
2.4 6.5 2.9 2.7 3.3 6.3 6.5 6.5 6.5 6.1 6.4 6.3 6.5 6.3 6.5 6.5 6.5 6.5 6.5 6.5 5.7 6.3 7.0 5.9 6.5 6.5 6.5 6.5 6.5 6.5 6.5 6.5 6.5 6.5 6.5 6.5 6.5 6.5 6.5 6.5 6.6 6.7 7.2 7.0 6.7
3.9 5.7 5.0 6.5 6.3 6.4 6.4 6.5 6.5 6.5 6.1 5.5 6.5 6.5 6.5 6.5 6.5 6.5 6.5 6.5 6.3 6.8 6.3 6.5 6.5 6.5 6.5 6.5 6.5 6.5 6.5 6.5 6.5 6.5 6.5 6.5 6.5 6.5 6.5 6.5 6.4 6.7 7.2 7.3 7.2
6.0 3.5 4.1 5.4 5.6 6.4 6.5 6.5 6.5 6.5 6.5 6.5 6.5 6.5 6.5 6.5 6.5 6.5 6.5 6.5 6.5 6.5 6.5 6.5 6.5 6.5 6.5 6.5 6.5 6.5 6.5 6.5 6.5 6.5 6.5 6.5 6.5 6.5 6.3 6.2 6.4 6.6 7.0 6.9 6.8
3.2 3.8 4.3 5.7 6.4 6.5 6.5 6.5 6.5 6.2 6.0 5.4 6.1 6.5 6.5 6.4 4.7 4.3 4.3 5.1 6.1 6.5 6.5 6.5 6.5 6.5 6.5 6.5 6.5 6.5 6.5 6.5 6.5 6.5 6.5 6.5 6.5 6.5 6.5 6.5 6.2 6.2 6.3 6.5 6.4
Wind_Speed
13 13 15 15 16 16 17 18 19 19 20 20 20 19 20 21 20 4 12 5 7 17 9 7 6 8 2 3 0 3 1 5 7 7 6 1 0 3 2 2 2 3 3 3 13
13 14 15 15 16 17 18 18 20 20 20 20 18 17 17 18 4 10 4 13 13 13 9 9 12 9 4 4 4 3 3 6 7 6 4 2 2 3 4 6 3 4 4 8 10
13 14 15 16 17 17 18 19 19 20 20 18 17 16 16 7 3 5 9 15 16 9 3 3 7 4 4 3 2 3 11 2 3 4 3 4 3 4 4 7 6 3 3 8 5
12 13 15 16 17 18 18 17 17 18 20 19 19 20 17 1 5 5 9 15 16 11 6 5 5 4 4 5 5 6 2 3 4 8 6 3 6 6 7 6 7 6 4 7 11
12 13 15 16 18 19 19 19 18 18 18 18 18 18 5 5 3 5 10 14 9 7 5 5 5 3 2 4 9 6 7 6 9 13 12 13 6 10 20 13 9 8 8 7 10
12 14 16 17 19 20 21 21 20 17 16 15 15 13 2 11 2 6 7 5 3 4 4 2 2 2 3 2 2 8 13 14 9 9 9 13 11 8 27 7 11 9 12 10 11
13 14 16 18 20 21 22 23 21 15 10 10 11 3 3 4 5 14 7 4 4 1 4 3 2 2 3 5 4 9 18 18 13 6 7 6 14 20 39 4 8 9 9 10 9
13 15 16 18 21 22 24 24 18 7 3 3 6 3 1 3 11 8 3 7 7 2 2 5 2 2 3 3 6 7 8 5 6 3 6 12 26 21 19 7 10 8 9 9 11
13 15 17 19 22 24 24 20 6 8 3 1 5 3 4 7 5 5 3 4 7 5 3 4 3 3 1 3 5 2 10 15 16 10 6 12 21 12 11 8 9 6 9 10 11
12 15 17 19 22 25 24 3 10 6 1 1 2 3 6 5 4 6 2 3 3 5 6 5 4 2 3 3 6 6 9 9 12 5 16 15 21 15 13 10 11 11 8 9 10
11 13 16 19 22 25 9 3 5 3 6 1 1 1 5 7 3 6 5 5 1 4 4 3 3 5 10 11 15 14 17 19 15 13 16 19 20 14 11 10 14 12 8 10 11
10 12 16 18 21 22 3 4 1 2 3 1 3 5 5 1 2 8 6 6 5 4 3 4 3 8 7 10 12 14 17 20 16 11 16 10 18 15 13 9 10 15 17 12 8
9 10 14 17 22 4 3 3 2 2 3 4 4 3 5 4 2 8 5 5 3 5 7 2 8 9 9 11 11 14 16 13 14 8 15 9 14 10 7 7 9 9 13 14 11
6 8 12 21 2 2 2 6 3 3 4 4 2 2 5 2 4 3 6 3 6 4 6 5 5 9 10 6 11 16 14 15 13 5 4 4 5 4 2 6 6 15 8 8 8
5 6 9 8 1 2 3 4 5 3 4 4 4 1 5 6 1 6 5 6 4 6 2 6 12 10 6 9 10 9 9 13 13 6 5 7 1 5 9 13 19 11 13 11 9
4 5 7 3 2 1 5 6 4 6 4 1 1 3 5 5 4 5 7 6 1 4 2 11 4 2 5 16 18 14 7 6 9 3 4 5 4 3 7 11 18 16 16 14 13
3 3 3 1 1 3 2 3 5 5 3 2 1 2 2 4 4 5 6 8 6 7 13 8 5 5 9 14 1 1 1 1 3 1 3 5 7 4 9 14 13 15 16 15 14
3 4 2 4 1 3 3 5 4 3 4 1 2 1 3 5 3 6 3 6 5 2 3 5 8 7 14 6 6 6 3 2 3 4 4 3 7 4 13 12 14 15 15 17 19
2 2 2 3 15 3 5 3 7 6 5 5 2 3 1 2 1 5 3 4 2 5 3 5 5 5 10 14 6 4 3 1 4 2 3 4 3 4 16 19 20 19 20 21 19
2 1 3 5 16 4 4 5 3 3 4 3 4 3 3 1 3 3 2 2 4 3 2 2 5 2 6 8 7 6 6 1 2 3 3 6 6 9 16 14 18 19 18 18 19
2 1 2 7 4 4 3 6 4 5 2 4 5 3 3 2 1 1 1 0 3 5 3 1 2 7 4 4 6 5 8 5 2 3 3 4 2 5 9 9 13 16 16 15 17
2 0 1 2 3 2 3 4 4 3 3 2 3 3 4 3 2 2 2 3 3 3 4 2 1 4 4 6 4 3 3 5 3 4 1 2 2 7 4 4 7 13 15 16 16
2 2 1 2 4 3 4 3 2 3 4 5 5 3 2 3 1 3 1 3 4 4 3 3 2 4 6 5 5 5 6 7 2 1 2 3 3 5 3 4 4 6 8 10 14
2 1 3 3 1 7 5 4 4 3 3 3 4 3 3 2 2 2 1 2 3 0 6 2 1 3 4 5 3 8 16 10 1 2 1 2 3 11 9 5 5 2 3 7 9
2 4 3 4 4 5 6 8 6 5 5 6 3 5 5 2 1 2 2 2 3 3 2 3 1 2 5 5 3 7 10 9 1 3 3 1 8 8 6 5 5 6 6 8 8
3 3 1 1 5 12 9 8 10 5 7 5 4 7 6 5 6 7 4 3 4 1 1 1 2 3 4 3 3 3 7 5 6 6 5 3 8 4 5 6 6 5 5 4 3
3 1 3 1 3 7 5 7 10 8 5 6 8 5 5 7 7 6 6 3 2 4 3 2 2 2 4 5 4 4 3 4 4 4 2 3 3 3 1 4 5 5 5 5 6
Wind_Direction
26 17 13 5 3 359 357 353 347 346 342 340 342 344 345 339 330 13 45 300 314 338 335 305 9 341 8 357 128 139 226 222 212 162 244 303 171 285 262 222 302 286 299 329 125
19 14 8 1 357 356 353 348 347 344 341 340 341 341 339 334 337 50 311 345 354 18 25 18 3 345 9 359 326 149 200 228 192 193 235 291 321 276 325 322 233 262 80 103 139
14 7 3 359 353 350 350 343 346 346 339 336 340 339 335 337 60 332 336 343 339 18 77 44 19 33 10 338 307 251 237 168 326 357 347 279 273 247 208 272 210 237 311 148 158
7 1 358 356 350 346 341 340 338 337 336 338 345 340 338 108 86 268 324 341 344 342 26 24 17 37 4 327 333 306 341 100 342 341 332 280 323 302 258 238 270 286 315 162 178
360 357 354 351 346 342 337 336 333 332 330 336 341 339 354 46 133 286 343 340 348 351 37 26 37 43 13 323 325 256 332 318 329 322 305 301 260 270 268 248 267 276 290 215 195
354 355 351 348 343 337 333 330 326 327 323 327 339 337 47 74 343 14 346 329 10 7 341 56 12 301 253 262 258 309 315 308 300 295 285 288 289 325 267 260 237 242 253 258 211
346 348 347 344 339 333 328 323 317 312 305 324 334 9 27 69 358 336 351 309 281 119 306 243 153 98 10 321 284 298 307 307 281 218 241 277 265 232 253 346 287 253 252 248 237
341 343 342 340 333 329 325 321 312 284 295 302 355 24 296 330 330 336 1 314 302 329 220 289 180 177 162 263 333 315 289 324 349 254 252 167 257 239 262 257 257 246 253 259 262
335 337 340 337 331 328 329 331 34 102 111 64 23 50 356 333 21 314 212 279 327 332 321 291 109 191 287 341 325 228 276 280 298 325 262 194 263 266 255 257 260 228 246 254 262
333 334 338 334 331 331 334 347 94 85 68 64 142 34 333 338 319 327 300 313 293 344 1 44 50 40 23 98 265 268 273 282 273 356 309 300 277 282 284 281 257 263 234 244 247
328 331 336 334 333 333 356 20 15 346 35 89 241 256 291 304 332 336 309 325 17 51 21 355 49 245 244 227 251 265 270 273 274 286 289 284 286 299 275 258 266 257 229 240 246
322 331 334 333 330 333 59 68 100 207 334 182 249 276 256 218 352 335 13 19 23 341 358 13 259 267 252 267 258 255 258 265 279 263 272 283 292 289 281 255 242 245 250 236 236
317 330 330 328 321 24 19 21 145 60 103 308 209 244 271 145 52 329 26 334 20 350 333 216 268 309 294 283 266 257 246 255 261 280 266 293 286 257 258 234 252 242 241 243 215
309 328 333 329 48 323 33 327 115 56 72 294 358 332 346 147 48 347 350 38 2 332 330 293 278 322 330 287 285 265 237 246 241 238 232 130 299 309 322 311 21 339 295 280 275
297 325 345 15 245 66 312 6 103 58 40 270 305 318 351 90 303 339 316 13 349 301 10 270 296 308 310 274 307 271 270 229 223 209 260 160 212 340 351 353 339 343 3 358 333
286 324 350 11 18 305 338 106 42 47 255 59 335 37 34 13 2 336 6 10 307 330 261 287 265 257 283 298 281 263 332 231 227 160 251 205 130 42 15 352 0 0 2 360 12
273 307 332 104 223 347 84 46 44 126 288 175 125 39 103 340 12 35 15 14 39 1 348 327 315 327 5 324 42 57 110 194 221 16 240 196 155 57 7 4 5 355 359 7 18
280 309 269 218 158 6 53 55 94 224 219 82 86 69 93 18 23 9 37 16 352 56 293 0 327 10 338 337 301 314 303 187 235 176 216 118 169 74 12 358 2 14 10 13 19
313 350 286 263 202 68 77 69 207 209 180 139 73 103 50 15 99 29 67 348 309 16 24 354 286 310 323 342 324 6 19 138 280 264 116 146 82 62 8 359 4 12 13 18 16
89 27 250 144 139 76 80 237 220 223 132 99 153 162 158 270 35 42 24 268 348 348 172 288 287 287 304 346 1 39 321 23 3 14 318 92 50 353 0 358 352 359 16 18 20
60 77 261 157 84 61 171 224 230 232 179 138 187 146 149 162 207 260 249 109 13 308 318 309 195 299 358 17 343 335 21 7 308 14 344 14 46 292 329 2 356 350 356 20 30
127 41 273 160 80 114 170 203 211 172 139 156 130 151 166 182 194 248 208 193 9 310 1 267 253 286 272 315 2 33 23 358 51 344 6 154 204 281 288 4 21 354 359 12 23
204 199 317 113 155 206 264 261 233 152 170 160 182 177 170 173 88 213 235 169 34 54 15 336 345 340 349 353 11 3 326 330 266 67 356 81 336 333 336 313 333 67 24 17 21
96 166 321 38 257 149 162 201 196 203 171 161 172 130 127 168 168 195 225 260 344 229 29 42 211 165 197 218 274 309 319 327 5 74 282 57 14 2 11 20 301 330 65 43 31
168 232 198 203 230 177 162 170 164 170 201 176 206 182 163 160 12 234 225 298 310 128 70 90 276 284 258 271 256 271 293 324 296 275 94 52 57 9 40 2 1 49 39 28 37
169 161 99 258 147 172 183 199 176 183 156 196 189 185 174 173 188 204 193 190 234 111 79 33 258 38 308 19 3 313 354 8 34 37 58 78 66 343 3 22 8 13 8 2 45
178 210 119 187 157 166 205 179 189 152 214 180 180 134 180 219 208 215 196 194 189 164 171 141 116 64 283 352 330 6 356 2 39 33 115 55 308 327 306 310 306 307 321 325 329